Location: Newark
(25.0000°N, 73.5000°E)
Time: 02:22:55
(UTC+00:00)

ISS - Pass Details

Date: 24 June 2021
Orbit: 419 x 421 km, 51.6° (Epoch: 03 August)

Event Time Altitude Azimuth Distance (km) Brightness Sun altitude
Exits shadow 23:04:57 26° 272° (W) 850 -2.7 -15.1°
Maximum altitude 23:06:05 35° 314° (NW) 695 -2.8 -14.8°
Drops below altitude 10° 23:09:12 10° 22° (NNE) 1,494 -0.1 -14.3°
Sets 23:11:25 0° 32° (NNE) 2,359 1.4 -13.9°
